Powrót do katalogu

JIELONG-3 R/B

AktywnyNaukaPO
NORAD 68690·ROCKET BODY·🇨🇳 China

Wystrzelony Apr 11, 2026 z South China Sea Launch Area

Loading…

Następne Przeloty (najbliższe 24 godziny)

TLE

ŚwieżeSource: Space-Track

Epoka: Sep 14, 2026, 23:13 UTC

1 68690U 26078C   26257.96739283  .00004540  00000-0  20474-3 0  9994
2 68690  86.6398 241.8948 0434668 208.2308 149.4725 14.63845801 22861

Śledź JIELONG-3 R/B w czasie rzeczywistym z AllMySat

Download on the App Store